Grants-Milan, NM

6:39 PM MST on December 14, 2017 (GMT -0700)
Grants-Milan Municipal

Weather History for KGNT - July, 2013

Change the Weather History Date:

Monday, July 1, 2013

  Actual Average Record
Temperature  
Mean Temperature 72 °F -  
Max Temperature 87 °F 89 °F 98 °F (1993)
Min Temperature 57 °F 52 °F 37 °F (2004)
Cooling Degree Days 7    
Growing Degree Days 22 (Base 50)    
Moisture  
Dew Point 49 °F    
Average Humidity 50    
Maximum Humidity 78    
Minimum Humidity 19    
Precipitation  
Precipitation 0.05 in - - ()
Sea Level Pressure  
Sea Level Pressure 30.31 in    
Wind  
Wind Speed 14 mph (SE)    
Max Wind Speed 25 mph    
Max Gust Speed 32 mph    
Visibility 10 miles    
Events Rain , Thunderstorm    
Averages and records for this station are not official NWS values.
T = Trace of Precipitation, MM = Missing Value Source: NWS Daily Summary

Daily Weather History Graph

Daily Weather History Graph

Search for Another Location

Airport or City:

Trip Planner

Search our weather history database for the weather conditions in past years. The results will help you decide how hot, cold, wet, or windy it might be!

Date:

Astronomy

Jul. 01, 2013 Rise Set
Actual Time 6:00 AM MDT 8:29 PM MDT
Civil Twilight 5:31 AM MDT 8:59 PM MDT
Nautical Twilight 4:54 AM MDT 9:36 PM MDT
Astronomical Twilight 4:14 AM MDT 10:16 PM MDT
Moon 1:23 AM MDT (7/1) 2:55 PM MDT (7/1)
Length of Visible Light 15h 28m
Length of Day
14h 29m
Waning Crescent, 35% of the Moon is Illuminated
Jul 1
Waning Crescent
Jul 8
New
Jul 15
First Quarter
Jul 22
Full
Jul 29
Last Quarter

Hourly Weather History & Observations

Time (MDT) Temp. Dew Point Humidity Pressure Visibility Wind Dir Wind Speed Gust Speed Precip Events Conditions
12:15 AM 69.3 °F 49.1 °F 49% 30.34 in 10.0 mi SE 20.7 mph 29.9 mph N/A   Clear
12:35 AM 68.0 °F 50.0 °F 52% 30.33 in 10.0 mi SE 19.6 mph 28.8 mph N/A Rain Light Rain
12:55 AM 67.1 °F 50.2 °F 55% 30.35 in 10.0 mi SE 25.3 mph 32.2 mph N/A   Scattered Clouds
1:15 AM 66.4 °F 50.2 °F 56% 30.34 in 10.0 mi SSE 20.7 mph 26.5 mph N/A   Scattered Clouds
1:35 AM 65.5 °F 50.7 °F 59% 30.36 in 10.0 mi SSE 13.8 mph 24.2 mph N/A   Mostly Cloudy
1:55 AM 64.8 °F 50.9 °F 61% 30.35 in 10.0 mi SSE 13.8 mph - N/A   Mostly Cloudy
2:15 AM 64.4 °F 50.9 °F 62% 30.32 in 10.0 mi SSE 12.7 mph 19.6 mph N/A   Mostly Cloudy
2:35 AM 64.2 °F 50.5 °F 61% 30.32 in 10.0 mi SSE 15.0 mph 21.9 mph N/A   Scattered Clouds
2:55 AM 63.0 °F 50.5 °F 64% 30.33 in 10.0 mi SSE 16.1 mph 23.0 mph N/A   Clear
3:15 AM 62.4 °F 50.2 °F 64% 30.33 in 10.0 mi SSE 15.0 mph 20.7 mph N/A   Clear
3:35 AM 61.3 °F 50.9 °F 69% 30.34 in 10.0 mi SSE 15.0 mph 20.7 mph N/A   Clear
3:55 AM 60.8 °F 50.9 °F 70% 30.33 in 10.0 mi SSE 12.7 mph - N/A   Clear
4:15 AM 60.1 °F 50.9 °F 72% 30.33 in 10.0 mi SSE 12.7 mph - N/A   Clear
4:35 AM 59.5 °F 50.4 °F 72% 30.33 in 10.0 mi SSE 9.2 mph - N/A   Clear
4:55 AM 58.6 °F 50.2 °F 73% 30.33 in 10.0 mi SSE 6.9 mph - N/A   Clear
5:15 AM 58.1 °F 50.4 °F 75% 30.33 in 10.0 mi South 6.9 mph - N/A   Clear
5:35 AM 57.4 °F 50.2 °F 77% 30.34 in 10.0 mi South 6.9 mph - N/A   Clear
5:55 AM 57.4 °F 50.5 °F 78% 30.34 in 10.0 mi South 6.9 mph - N/A   Clear
6:15 AM 57.2 °F 50.4 °F 78% 30.34 in 10.0 mi South 6.9 mph - N/A   Clear
6:35 AM 58.3 °F 50.9 °F 76% 30.34 in 10.0 mi South 5.8 mph - N/A   Clear
6:55 AM 60.6 °F 51.6 °F 72% 30.35 in 10.0 mi South 9.2 mph - N/A   Clear
7:15 AM 62.1 °F 52.0 °F 70% 30.36 in 10.0 mi SSE 10.4 mph - N/A   Clear
7:35 AM 63.0 °F 52.3 °F 68% 30.36 in 10.0 mi SSE 12.7 mph - N/A   Clear
7:55 AM 64.4 °F 52.9 °F 66% 30.37 in 10.0 mi SSE 15.0 mph - N/A   Clear
8:15 AM 64.9 °F 52.9 °F 65% 30.37 in 10.0 mi SE 16.1 mph - N/A   Clear
8:35 AM 66.0 °F 52.7 °F 62% 30.37 in 10.0 mi SE 15.0 mph 21.9 mph N/A   Clear
8:55 AM 66.7 °F 52.2 °F 59% 30.37 in 10.0 mi SE 16.1 mph 23.0 mph N/A   Clear
9:15 AM 67.8 °F 51.8 °F 56% 30.37 in 10.0 mi SSE 16.1 mph 24.2 mph N/A   Clear
9:35 AM 68.5 °F 52.2 °F 56% 30.37 in 10.0 mi SE 16.1 mph 24.2 mph N/A   Clear
9:55 AM 69.3 °F 52.2 °F 54% 30.37 in 10.0 mi SE 18.4 mph 25.3 mph N/A   Clear
10:15 AM 70.3 °F 51.8 °F 52% 30.37 in 10.0 mi SE 17.3 mph 23.0 mph N/A   Clear
10:35 AM 71.6 °F 51.3 °F 49% 30.36 in 10.0 mi SSE 17.3 mph 23.0 mph N/A   Clear
10:55 AM 72.1 °F 51.1 °F 47% 30.35 in 10.0 mi SE 13.8 mph 23.0 mph N/A   Clear
11:15 AM 72.7 °F 50.9 °F 46% 30.35 in 10.0 mi SSE 15.0 mph 25.3 mph N/A   Clear
11:35 AM 73.6 °F 50.5 °F 44% 30.35 in 10.0 mi SE 10.4 mph 20.7 mph N/A   Clear
11:55 AM 74.8 °F 50.0 °F 42% 30.34 in 10.0 mi SE 12.7 mph 21.9 mph N/A   Clear
12:15 PM 76.1 °F 49.1 °F 39% 30.34 in 10.0 mi South 11.5 mph 23.0 mph N/A   Clear
12:35 PM 77.4 °F 48.4 °F 36% 30.34 in 10.0 mi SE 9.2 mph 18.4 mph N/A   Clear
12:55 PM 78.4 °F 47.5 °F 34% 30.33 in 10.0 mi SSE 10.4 mph 16.1 mph N/A   Clear
1:15 PM 79.9 °F 47.5 °F 32% 30.32 in 10.0 mi SE 11.5 mph 19.6 mph N/A   Clear
1:35 PM 79.7 °F 46.0 °F 30% 30.31 in 10.0 mi South 5.8 mph - N/A   Clear
1:55 PM 80.8 °F 46.6 °F 30% 30.30 in 10.0 mi SE 9.2 mph - N/A   Clear
2:15 PM 82.8 °F 45.5 °F 27% 30.28 in 10.0 mi SSE 3.5 mph - N/A   Clear
2:35 PM 82.9 °F 45.3 °F 27% 30.28 in 10.0 mi SE 9.2 mph - N/A   Clear
2:55 PM 82.8 °F 45.0 °F 26% 30.27 in 10.0 mi ENE 3.5 mph 16.1 mph N/A   Clear
3:15 PM 84.2 °F 43.7 °F 24% 30.26 in 10.0 mi SSE 8.1 mph 18.4 mph N/A   Clear
3:35 PM 85.3 °F 41.0 °F 21% 30.24 in 10.0 mi West 5.8 mph - N/A   Clear
3:55 PM 85.1 °F 41.0 °F 21% 30.24 in 10.0 mi SSW 5.8 mph 18.4 mph N/A   Clear
4:15 PM 86.0 °F 40.5 °F 20% 30.23 in 10.0 mi NNW 3.5 mph - N/A   Mostly Cloudy
4:35 PM 86.5 °F 41.2 °F 20% 30.21 in 10.0 mi SE 8.1 mph - N/A   Mostly Cloudy
4:55 PM 87.1 °F 41.7 °F 20% 30.20 in 10.0 mi ESE 11.5 mph - N/A   Scattered Clouds
5:15 PM 85.1 °F 41.0 °F 21% 30.20 in 10.0 mi East 6.9 mph - N/A   Scattered Clouds
5:35 PM 86.7 °F 40.1 °F 19% 30.20 in 10.0 mi East 5.8 mph - N/A   Scattered Clouds
5:55 PM 87.1 °F 39.9 °F 19% 30.20 in 10.0 mi East 10.4 mph - N/A   Scattered Clouds
6:15 PM 85.1 °F 39.9 °F 20% 30.19 in 10.0 mi ESE 8.1 mph 16.1 mph N/A   Clear
6:35 PM 83.3 °F 41.0 °F 22% 30.20 in 10.0 mi East 13.8 mph - N/A   Clear
6:55 PM 82.6 °F 40.5 °F 22% 30.21 in 10.0 mi ESE 12.7 mph 18.4 mph N/A   Scattered Clouds
7:15 PM 81.9 °F 40.6 °F 23% 30.23 in 10.0 mi East 12.7 mph - N/A Thunderstorm Overcast
7:35 PM 75.4 °F 44.2 °F 33% 30.28 in 5.0 mi North 18.4 mph 27.6 mph N/A Rain , Thunderstorm Light Thunderstorms and Rain
7:55 PM 66.9 °F 54.5 °F 64% 30.27 in 5.0 mi SE 15.0 mph 18.4 mph 0.05 in Rain , Thunderstorm Thunderstorms and Rain
8:15 PM 66.2 °F 55.4 °F 68% 30.26 in 10.0 mi South 16.1 mph 19.6 mph N/A Thunderstorm Mostly Cloudy
8:35 PM 66.6 °F 54.7 °F 66% 30.28 in 10.0 mi SSE 17.3 mph - N/A Thunderstorm Thunderstorm
8:55 PM 67.8 °F 52.3 °F 58% 30.28 in 10.0 mi SE 15.0 mph 18.4 mph N/A   Scattered Clouds
9:15 PM 68.0 °F 50.5 °F 54% 30.29 in 10.0 mi SE 17.3 mph 21.9 mph N/A   Scattered Clouds
9:35 PM 68.2 °F 49.1 °F 50% 30.29 in 10.0 mi ESE 17.3 mph 27.6 mph N/A   Clear
9:55 PM 67.1 °F 48.6 °F 51% 30.28 in 10.0 mi SE 17.3 mph 24.2 mph N/A   Clear
10:15 PM 66.0 °F 48.4 °F 53% 30.30 in 10.0 mi SSE 15.0 mph - N/A   Clear
10:35 PM 65.7 °F 48.9 °F 55% 30.32 in 10.0 mi SSE 15.0 mph 21.9 mph N/A   Clear
10:55 PM 65.5 °F 49.1 °F 55% 30.32 in 10.0 mi SE 16.1 mph 24.2 mph N/A   Scattered Clouds
11:15 PM 64.8 °F 49.8 °F 58% 30.32 in 10.0 mi SSE 16.1 mph 23.0 mph N/A   Scattered Clouds
11:35 PM 63.9 °F 50.5 °F 62% 30.33 in 10.0 mi SSE 16.1 mph 21.9 mph N/A   Clear
11:55 PM 62.8 °F 50.7 °F 65% 30.34 in 10.0 mi SSE 13.8 mph - N/A   Clear